Wind_Speed
33 34 32 31 34 36 36 35 33 29 31 35 36 36 34 34 33 32 30 27 24 22 23 24 26 27 27 27 27 27 28 28 29 29 29 30 32 33 34 35 35 35 36 38
34 32 31 34 37 38 38 37 34 30 33 38 39 39 37 36 34 33 31 29 26 25 25 26 27 28 29 29 29 30 31 33 34 35 35 36 37 38 38 39 39 39 40 42
35 30 32 37 38 39 39 37 34 32 35 40 42 42 40 38 37 34 32 29 27 26 26 28 29 30 30 32 33 33 35 38 39 40 40 41 41 41 40 41 42 43 44 47
33 30 33 36 38 39 38 35 35 35 38 41 44 46 43 41 40 37 33 29 28 28 28 30 32 32 33 34 35 37 39 42 43 44 45 45 43 42 42 43 45 46 48 51
30 28 32 36 36 38 36 35 38 39 41 44 46 49 46 43 41 37 34 31 30 30 31 33 34 35 36 36 37 40 42 45 46 48 48 46 44 43 43 44 47 49 52 55
30 29 32 34 34 37 36 37 40 42 43 46 44 48 49 45 41 38 36 34 34 34 35 36 36 37 37 38 40 42 44 45 47 48 47 44 43 42 44 46 49 52 56 59
31 30 30 31 33 35 36 36 39 41 43 44 41 46 47 43 40 38 37 36 36 37 38 38 38 37 37 38 40 42 43 44 45 46 45 43 42 44 46 48 51 55 58 60
34 32 29 30 29 30 33 35 37 40 41 41 41 44 42 39 38 37 37 37 37 37 37 38 36 35 36 37 39 41 42 43 44 44 43 43 43 45 47 50 54 57 59 59
34 32 28 29 28 29 31 34 35 39 41 43 43 43 41 37 36 36 35 34 34 34 34 34 33 33 34 36 39 42 44 45 45 45 44 44 44 46 49 52 56 59 59 57
36 33 29 29 29 29 30 32 36 39 41 44 44 42 40 36 34 34 34 33 32 33 33 34 34 34 35 38 41 43 46 48 47 46 46 45 46 48 51 55 58 59 58 56
37 36 30 30 30 28 28 31 35 39 42 45 47 45 40 37 34 34 33 33 32 32 33 35 36 37 38 40 43 46 49 50 49 48 47 46 47 49 54 57 58 57 55 53
40 39 35 32 31 30 31 33 35 39 42 45 49 47 40 38 36 35 35 35 34 34 35 36 37 39 40 43 45 48 51 51 50 49 47 47 48 52 55 56 55 54 52 50
43 42 40 36 34 34 34 35 37 39 42 45 48 47 41 39 37 35 35 35 36 38 39 40 41 42 44 45 48 49 51 51 49 46 45 47 50 52 53 52 52 51 50 48
46 46 44 42 40 39 38 38 39 40 43 46 48 47 44 42 41 40 39 38 38 39 40 41 43 44 46 47 48 49 47 45 43 43 44 47 49 50 50 50 50 49 48 46
50 50 50 49 47 46 44 43 44 44 45 47 48 48 47 47 47 45 44 43 42 43 43 44 44 47 47 46 48 45 43 42 43 45 46 47 48 48 48 49 49 47 45 44
51 54 54 54 53 52 50 47 48 48 49 50 49 49 47 48 48 48 47 47 46 46 46 46 47 47 46 46 44 43 42 43 45 45 45 46 46 47 48 48 46 45 44 45
45 49 52 54 55 56 56 52 53 53 54 54 54 52 52 52 51 51 50 49 49 49 49 50 50 49 47 44 44 44 44 44 43 43 44 45 46 47 46 45 44 44 45 47
39 42 46 49 51 53 52 52 51 52 52 53 54 54 54 55 55 55 54 53 52 51 51 51 50 48 47 45 43 42 43 42 42 42 43 44 45 45 44 44 44 45 47 48
38 40 42 44 47 48 48 49 50 50 50 49 50 50 51 52 53 54 54 53 52 52 52 50 48 46 45 43 41 41 41 40 41 42 43 43 43 43 43 43 45 47 48 48
37 38 40 42 44 45 45 46 46 48 46 43 44 45 46 47 48 48 48 48 49 49 48 47 45 44 42 40 39 38 38 39 40 41 42 41 41 41 43 44 46 46 47 47
34 35 36 37 39 40 41 41 41 41 40 39 39 39 40 40 41 42 43 42 42 41 41 40 40 38 36 36 35 35 36 37 39 39 39 39 40 41 43 45 45 45 46 46
29 30 31 32 33 33 34 35 36 36 35 34 34 34 34 34 34 35 35 35 34 35 35 34 33 31 30 30 31 32 34 35 36 36 36 38 40 42 44 44 44 43 43 43
25 26 26 27 26 27 28 29 29 30 30 29 28 28 28 28 28 28 28 28 29 29 28 26 24 23 24 26 28 30 32 32 32 33 36 38 40 42 42 42 42 41 41 41
22 22 22 22 22 22 23 23 24 24 23 21 21 21 22 22 22 22 21 21 21 20 19 18 18 19 21 24 26 27 28 29 30 33 36 38 40 40 40 40 39 38 38 37
19 19 18 17 17 17 17 17 16 16 15 15 15 16 16 15 15 17 16 14 13 12 13 14 15 17 19 22 23 24 25 28 31 34 36 38 38 38 38 37 36 35 34 33
16 16 14 12 12 11 10 10 8 9 9 9 9 9 11 12 12 11 10 10 9 9 10 11 13 16 18 20 20 22 24 28 31 34 35 36 37 37 36 35 34 32 31 31
Wind_Direction
246 245 242 242 242 242 243 245 243 240 243 249 253 256 256 256 259 264 268 270 273 279 286 293 301 307 311 314 315 314 316 319 320 321 322 323 325 327 329 328 326 323 321 319
244 246 244 242 241 242 243 244 244 240 242 247 250 254 257 257 260 264 267 268 268 271 278 287 295 302 306 309 310 311 313 315 315 316 317 317 318 320 323 325 324 322 321 320
245 243 242 242 243 243 244 246 245 241 239 245 250 253 256 257 260 263 266 267 267 269 275 282 289 295 300 304 306 308 310 310 310 311 311 312 312 314 318 320 321 321 320 319
248 244 243 244 244 246 246 246 244 240 238 240 249 253 256 257 259 263 265 265 266 269 273 278 284 290 295 299 302 304 305 306 306 306 306 307 308 310 313 316 318 318 318 318
249 247 246 246 246 247 246 244 244 242 242 243 247 256 260 259 260 263 265 265 266 268 271 276 281 285 290 294 297 300 301 303 303 302 302 305 306 308 311 314 315 316 316 316
250 248 248 248 246 246 245 243 246 247 248 249 250 255 260 260 262 265 266 267 268 268 270 274 278 282 287 291 294 296 297 299 300 301 302 305 305 307 310 312 313 315 315 316
251 248 249 249 247 248 248 247 247 249 250 254 255 256 259 261 262 265 268 269 270 270 271 274 277 280 284 287 290 293 295 297 300 302 302 305 305 306 308 310 312 313 314 314
249 244 246 249 250 250 251 249 248 251 253 256 256 257 260 261 264 267 271 273 272 272 273 274 276 278 281 284 287 291 293 296 298 300 301 302 303 305 306 309 311 312 313 312
253 248 241 244 245 243 243 246 249 251 254 256 257 260 262 263 266 270 274 276 276 275 274 274 275 277 280 283 286 289 291 293 295 296 296 298 300 303 305 307 309 311 312 311
255 251 242 241 244 244 243 242 242 247 255 259 262 264 266 268 271 274 276 278 277 275 273 273 275 278 281 283 285 288 290 291 292 293 294 294 298 301 304 306 309 310 311 311
254 255 247 240 242 243 243 243 244 248 252 259 263 266 270 273 275 277 279 279 278 276 275 276 278 280 282 283 285 285 286 288 290 290 290 292 297 300 304 307 309 310 310 311
253 255 253 246 242 242 244 246 246 249 253 257 263 267 271 274 276 278 279 279 278 278 278 280 283 283 283 284 285 287 286 287 288 288 289 293 298 302 305 307 309 310 311 312
254 256 258 255 250 248 247 248 249 252 256 259 263 269 272 274 276 278 280 281 281 282 283 285 287 287 288 287 285 285 285 284 285 287 293 299 303 305 307 309 310 311 312 311
253 255 257 258 256 256 255 254 254 256 258 261 265 270 273 275 277 279 281 282 283 285 287 289 291 290 293 291 286 284 286 289 293 300 305 306 306 308 309 310 311 312 312 311
250 253 256 258 260 260 259 259 261 262 263 264 266 268 271 273 276 278 280 282 283 286 288 290 292 293 293 293 290 288 294 300 306 310 310 308 308 309 311 311 312 312 312 311
250 252 254 257 259 261 262 263 265 266 267 269 269 270 271 272 274 275 277 280 282 284 288 290 292 293 294 294 291 295 299 305 309 309 308 309 310 312 313 313 313 313 313 313
252 254 256 257 259 262 264 266 266 267 269 269 270 271 271 271 273 275 276 278 280 282 285 288 290 292 295 294 296 299 302 307 308 309 309 311 313 313 314 314 314 314 314 315
256 257 259 260 261 262 266 267 267 267 267 268 268 269 270 270 271 272 274 276 278 281 284 286 289 290 293 294 296 299 303 306 308 309 311 313 314 315 315 314 315 315 316 315
258 260 261 262 264 266 267 268 269 268 267 267 267 268 268 269 270 271 273 274 276 279 281 284 287 289 292 292 294 299 303 306 308 310 312 314 315 315 314 315 316 316 316 316
260 261 263 264 265 267 269 269 269 269 269 269 267 266 265 265 266 268 270 271 273 275 277 280 282 284 285 287 293 300 303 306 309 312 314 315 314 314 315 316 317 317 316 316
264 265 265 266 267 268 269 270 271 271 271 268 267 265 264 263 264 266 267 269 270 271 272 273 273 275 279 287 294 299 303 307 311 314 314 313 314 315 316 317 317 317 317 317
268 269 269 270 270 271 271 271 271 271 271 269 266 263 262 261 262 263 266 266 265 264 264 263 262 268 280 288 295 301 305 310 312 313 312 313 315 317 318 318 318 318 319 320
268 269 270 271 273 272 273 272 271 271 270 268 264 260 258 257 257 260 262 260 261 258 256 254 264 274 283 292 299 304 309 311 311 312 313 316 317 318 319 319 320 321 322 323
267 268 268 270 270 270 271 271 271 270 269 266 260 255 253 253 252 251 252 247 244 246 252 261 270 280 290 298 305 310 312 311 312 314 317 318 320 321 321 322 324 325 326 327
265 264 264 265 265 267 266 267 267 264 260 258 253 247 247 244 244 242 242 242 242 250 262 271 282 293 301 308 312 312 311 313 316 318 320 322 323 324 325 326 327 328 330 331
260 257 253 251 250 250 253 252 249 238 233 233 234 234 230 229 232 232 236 239 247 258 272 289 300 307 311 313 312 313 315 318 321 323 324 325 326 328 329 330 331 332 334 335
Height
5827 5831 5835 5838 5838 5839 5840 5842 5845 5849 5848 5845 5845 5845 5847 5847 5847 5848 5849 5850 5851 5851 5851 5849 5848 5846 5844 5843 5841 5839 5837 5835 5833 5832 5830 5828 5825 5822 5820 5816 5813 5809 5805 5801
5821 5825 5830 5829 5829 5831 5833 5835 5839 5842 5841 5838 5838 5838 5840 5841 5842 5843 5844 5844 5845 5845 5844 5843 5842 5840 5839 5837 5835 5833 5831 5828 5826 5824 5822 5820 5817 5814 5811 5808 5804 5800 5796 5791
5813 5819 5820 5821 5822 5824 5826 5829 5833 5835 5833 5830 5830 5831 5833 5835 5836 5837 5838 5839 5839 5839 5839 5838 5836 5835 5833 5831 5829 5827 5824 5822 5819 5817 5815 5812 5809 5806 5803 5800 5796 5791 5786 5781
5806 5811 5812 5813 5815 5817 5820 5824 5825 5825 5825 5824 5823 5822 5826 5828 5830 5832 5833 5833 5833 5833 5833 5832 5831 5829 5827 5825 5823 5820 5818 5815 5812 5809 5807 5804 5801 5797 5794 5791 5786 5781 5776 5770
5800 5804 5804 5805 5809 5810 5813 5815 5815 5816 5816 5817 5817 5815 5819 5821 5823 5825 5826 5826 5827 5827 5827 5826 5824 5822 5820 5818 5816 5813 5811 5807 5804 5801 5799 5795 5792 5789 5786 5782 5777 5771 5765 5758
5794 5797 5797 5799 5802 5802 5804 5806 5806 5807 5808 5809 5813 5811 5810 5814 5817 5818 5819 5819 5820 5820 5819 5818 5817 5815 5813 5811 5809 5806 5803 5800 5797 5794 5791 5787 5784 5781 5777 5772 5766 5760 5753 5746
5788 5790 5791 5792 5794 5796 5797 5800 5800 5799 5800 5802 5807 5804 5804 5808 5810 5811 5811 5812 5812 5812 5811 5810 5809 5808 5806 5804 5802 5799 5796 5793 5789 5786 5783 5779 5775 5771 5767 5762 5755 5748 5741 5733
5780 5783 5785 5786 5788 5790 5791 5792 5793 5793 5794 5795 5797 5795 5800 5802 5803 5803 5804 5804 5804 5804 5803 5802 5801 5800 5798 5796 5794 5791 5788 5785 5782 5778 5774 5770 5766 5762 5757 5751 5744 5737 5729 5721
5773 5777 5780 5779 5780 5783 5783 5784 5787 5787 5786 5786 5787 5789 5793 5795 5796 5797 5796 5796 5796 5796 5795 5794 5793 5792 5790 5788 5785 5782 5779 5776 5773 5769 5765 5761 5757 5752 5746 5740 5733 5725 5717 5709
5766 5770 5774 5774 5774 5776 5778 5779 5780 5780 5779 5778 5779 5782 5786 5789 5790 5790 5790 5789 5788 5788 5787 5786 5785 5784 5782 5780 5776 5773 5769 5766 5762 5759 5755 5751 5746 5741 5735 5728 5721 5713 5705 5697
5759 5762 5767 5769 5769 5770 5771 5773 5773 5773 5773 5772 5770 5775 5779 5781 5783 5783 5782 5782 5781 5780 5779 5778 5777 5775 5773 5770 5767 5763 5759 5755 5751 5748 5744 5739 5735 5729 5723 5716 5708 5700 5692 5684
5751 5754 5758 5762 5764 5764 5765 5766 5766 5766 5766 5765 5763 5768 5772 5774 5775 5775 5775 5775 5774 5773 5771 5770 5769 5767 5764 5760 5756 5753 5748 5744 5740 5736 5732 5727 5723 5717 5710 5703 5695 5687 5679 5671
5743 5746 5748 5753 5758 5758 5758 5759 5759 5759 5759 5758 5757 5762 5765 5766 5767 5767 5767 5767 5766 5765 5764 5762 5760 5757 5754 5750 5746 5741 5737 5732 5728 5725 5721 5716 5711 5705 5698 5690 5682 5674 5666 5659
5734 5736 5739 5742 5745 5747 5749 5750 5751 5751 5751 5750 5751 5753 5756 5757 5758 5759 5759 5759 5758 5757 5755 5754 5751 5748 5744 5740 5735 5730 5726 5722 5718 5714 5710 5705 5699 5692 5685 5677 5670 5662 5654 5647
5724 5726 5728 5730 5733 5736 5739 5741 5742 5742 5743 5742 5743 5745 5748 5749 5749 5749 5749 5749 5749 5748 5746 5744 5741 5738 5734 5730 5726 5721 5717 5713 5708 5704 5699 5693 5686 5679 5672 5665 5658 5650 5643 5636
5714 5716 5718 5720 5723 5724 5726 5731 5733 5734 5734 5734 5734 5735 5739 5738 5738 5739 5739 5740 5739 5738 5736 5734 5731 5728 5725 5721 5716 5711 5707 5703 5698 5693 5687 5681 5674 5667 5660 5654 5647 5639 5632 5625
5705 5706 5708 5710 5712 5712 5714 5720 5722 5723 5724 5724 5723 5726 5726 5726 5727 5728 5728 5729 5728 5727 5726 5723 5720 5718 5715 5711 5706 5702 5698 5693 5688 5682 5676 5669 5663 5656 5649 5643 5636 5629 5622 5614
5696 5696 5697 5699 5701 5701 5708 5707 5708 5709 5711 5711 5711 5713 5714 5714 5715 5716 5717 5718 5718 5717 5715 5712 5710 5708 5705 5702 5697 5693 5688 5683 5678 5672 5665 5659 5652 5646 5639 5633 5626 5619 5611 5603
5686 5687 5688 5689 5689 5691 5695 5694 5693 5694 5697 5698 5698 5700 5700 5701 5701 5703 5705 5706 5706 5705 5704 5702 5700 5698 5696 5692 5688 5684 5679 5674 5668 5662 5655 5649 5643 5636 5630 5623 5616 5608 5600 5592
5677 5678 5679 5679 5679 5680 5682 5681 5680 5681 5684 5685 5685 5686 5687 5688 5690 5692 5693 5694 5694 5694 5693 5693 5691 5689 5687 5684 5679 5675 5671 5665 5659 5653 5646 5640 5634 5628 5622 5614 5607 5599 5590 5582
5668 5668 5669 5668 5668 5669 5670 5669 5669 5671 5672 5672 5672 5673 5675 5677 5679 5680 5681 5682 5683 5684 5684 5683 5682 5681 5678 5675 5672 5668 5663 5657 5651 5645 5639 5633 5627 5621 5613 5605 5597 5589 5581 5572
5658 5659 5659 5659 5659 5662 5658 5658 5659 5659 5660 5660 5661 5663 5664 5666 5668 5669 5671 5672 5673 5674 5675 5674 5673 5672 5670 5668 5665 5660 5655 5650 5644 5638 5633 5627 5620 5613 5605 5597 5588 5580 5572 5563
5651 5651 5650 5651 5653 5651 5649 5649 5649 5649 5650 5651 5652 5654 5656 5658 5660 5662 5664 5665 5666 5667 5668 5667 5666 5666 5664 5662 5658 5654 5648 5643 5638 5633 5627 5620 5613 5605 5597 5588 5580 5572 5563 5555
5644 5643 5644 5643 5644 5643 5642 5641 5641 5642 5642 5643 5645 5647 5649 5652 5654 5656 5658 5659 5660 5661 5662 5662 5661 5661 5659 5656 5651 5647 5642 5638 5633 5627 5620 5613 5605 5597 5589 5580 5572 5564 5556 5549
5637 5637 5638 5638 5638 5637 5636 5636 5636 5636 5637 5638 5640 5642 5645 5647 5650 5652 5654 5655 5656 5657 5658 5658 5657 5656 5653 5650 5645 5642 5638 5633 5628 5621 5614 5606 5598 5590 5582 5574 5566 5558 5551 5543
5631 5632 5633 5634 5634 5634 5633 5633 5633 5634 5635 5636 5638 5640 5642 5645 5647 5649 5651 5652 5653 5654 5654 5654 5653 5651 5648 5645 5642 5638 5634 5629 5623 5616 5608 5600 5591 5583 5575 5567 5560 5552 5546 5538